DAL8990 KLAS-KMIA

Flight info

Callsign DAL8990
Flight time N/A
Altitude 37000
Route NIITZ4 SSKEE INW CNX ABI J50 LFK HRV Q105 BLVNS Y290 GAWKS FROGZ5
Aircraft A21N/M-FAA/L

Departure

Time N/A
Airport Harry Reid International Airport (KLAS)

Arrival

Time 2026-05-03 21:00
Airport Miami International Airport (KMIA)
Time Latitude Longitude Altitude Speed Heading
2026-05-03 20:15 27.65919 -85.56902 37119 ft 519 kts 117°
2026-05-03 20:15 27.63611 -85.49189 37116 ft 519 kts 117°
2026-05-03 20:16 27.61300 -85.41483 37105 ft 519 kts 117°
2026-05-03 20:16 27.59152 -85.33696 37112 ft 526 kts 110°
2026-05-03 20:17 27.57615 -85.25627 37111 ft 528 kts 109°
2026-05-03 20:17 27.56211 -85.17543 37109 ft 529 kts 108°
2026-05-03 20:18 27.54816 -85.09404 37108 ft 529 kts 108°
2026-05-03 20:18 27.53400 -85.01259 37107 ft 530 kts 108°
2026-05-03 20:19 27.51968 -84.93108 37106 ft 530 kts 109°
2026-05-03 20:19 27.50530 -84.84965 37105 ft 530 kts 109°
2026-05-03 20:20 27.49084 -84.76810 37100 ft 530 kts 109°
2026-05-03 20:20 27.47637 -84.68675 37099 ft 530 kts 109°
2026-05-03 20:21 27.46199 -84.60594 37094 ft 522 kts 109°
2026-05-03 20:21 27.44771 -84.52611 37094 ft 520 kts 109°
2026-05-03 20:22 27.43332 -84.44622 37097 ft 520 kts 109°
2026-05-03 20:22 27.41891 -84.36647 37097 ft 520 kts 109°
2026-05-03 20:23 27.40454 -84.28717 37076 ft 520 kts 109°
2026-05-03 20:23 27.39007 -84.20749 37090 ft 519 kts 109°
2026-05-03 20:24 27.37555 -84.12782 37090 ft 519 kts 109°
2026-05-03 20:24 27.36098 -84.04815 37082 ft 519 kts 109°
2026-05-03 20:25 27.34645 -83.96892 37083 ft 519 kts 109°
2026-05-03 20:25 27.33182 -83.88946 37078 ft 518 kts 109°
2026-05-03 20:26 27.31718 -83.81013 37075 ft 517 kts 109°
2026-05-03 20:26 27.30252 -83.73104 37070 ft 517 kts 109°
2026-05-03 20:27 27.28781 -83.65189 37063 ft 517 kts 109°
2026-05-03 20:27 27.27314 -83.57329 37065 ft 516 kts 109°
2026-05-03 20:28 27.25836 -83.49428 37069 ft 516 kts 109°
2026-05-03 20:28 27.24354 -83.41534 37069 ft 516 kts 109°
2026-05-03 20:29 27.22869 -83.33649 37001 ft 516 kts 109°
2026-05-03 20:29 27.22123 -83.29699 36606 ft 515 kts 109°
2026-05-03 20:29 27.21380 -83.25767 36272 ft 515 kts 109°
2026-05-03 20:29 27.20633 -83.21826 36114 ft 516 kts 109°
2026-05-03 20:30 27.19884 -83.17882 35990 ft 516 kts 109°
2026-05-03 20:30 27.19134 -83.13932 35872 ft 517 kts 109°
2026-05-03 20:30 27.18383 -83.09988 35753 ft 516 kts 109°
2026-05-03 20:30 27.17640 -83.06091 35636 ft 516 kts 109°
2026-05-03 20:31 27.16957 -83.02510 35527 ft 517 kts 109°
2026-05-03 20:31 27.16202 -82.98567 35414 ft 517 kts 109°
2026-05-03 20:31 27.15446 -82.94617 35294 ft 517 kts 109°
2026-05-03 20:31 27.14688 -82.90666 35187 ft 518 kts 109°
2026-05-03 20:32 27.13898 -82.86733 35063 ft 515 kts 113°
2026-05-03 20:32 27.12692 -82.83014 34953 ft 499 kts 127°
2026-05-03 20:32 27.11025 -82.79645 34853 ft 491 kts 131°
2026-05-03 20:32 27.09240 -82.76373 34672 ft 491 kts 132°
2026-05-03 20:33 27.07453 -82.73148 34411 ft 492 kts 132°
2026-05-03 20:33 27.05640 -82.69874 34071 ft 493 kts 132°
2026-05-03 20:33 27.03836 -82.66608 33683 ft 493 kts 131°
2026-05-03 20:33 27.02022 -82.63321 33293 ft 494 kts 131°
2026-05-03 20:34 27.00197 -82.60017 32916 ft 503 kts 130°
2026-05-03 20:34 26.98333 -82.56648 32521 ft 512 kts 130°
2026-05-03 20:34 26.96482 -82.53291 32125 ft 513 kts 129°
2026-05-03 20:34 26.94618 -82.49906 31745 ft 510 kts 129°
2026-05-03 20:35 26.92749 -82.46544 31386 ft 504 kts 131°
2026-05-03 20:35 26.90604 -82.43529 31028 ft 485 kts 143°
2026-05-03 20:35 26.88160 -82.40990 30686 ft 476 kts 147°
2026-05-03 20:35 26.85658 -82.38580 30318 ft 472 kts 148°
2026-05-03 20:36 26.83164 -82.36206 29942 ft 469 kts 147°
2026-05-03 20:36 26.80688 -82.33846 29538 ft 466 kts 147°
2026-05-03 20:36 26.78234 -82.31504 29133 ft 463 kts 147°
2026-05-03 20:36 26.75793 -82.29170 28716 ft 459 kts 147°
2026-05-03 20:37 26.73366 -82.26850 28306 ft 456 kts 147°
2026-05-03 20:37 26.70960 -82.24549 27896 ft 453 kts 147°
2026-05-03 20:37 26.68577 -82.22270 27491 ft 450 kts 147°
2026-05-03 20:37 26.66201 -82.20001 27103 ft 447 kts 147°
2026-05-03 20:38 26.63871 -82.17775 26669 ft 444 kts 147°
2026-05-03 20:38 26.61524 -82.15535 26282 ft 442 kts 147°
2026-05-03 20:38 26.59191 -82.13310 25901 ft 439 kts 147°
2026-05-03 20:38 26.56873 -82.11099 25532 ft 437 kts 147°
2026-05-03 20:39 26.54568 -82.08902 25160 ft 434 kts 147°
2026-05-03 20:39 26.52295 -82.06699 24792 ft 432 kts 146°
2026-05-03 20:39 26.50060 -82.04457 24445 ft 430 kts 145°
2026-05-03 20:39 26.47850 -82.02226 24082 ft 427 kts 145°
2026-05-03 20:40 26.45648 -82.00004 23729 ft 425 kts 145°
2026-05-03 20:40 26.43460 -81.97798 23324 ft 422 kts 145°
2026-05-03 20:40 26.41291 -81.95613 22902 ft 420 kts 145°
2026-05-03 20:40 26.39125 -81.93434 22497 ft 417 kts 145°
2026-05-03 20:41 26.36976 -81.91273 22091 ft 415 kts 145°
2026-05-03 20:41 26.34835 -81.89122 21684 ft 413 kts 145°
2026-05-03 20:41 26.32708 -81.86987 21263 ft 411 kts 145°
2026-05-03 20:41 26.30618 -81.84890 20881 ft 408 kts 144°
2026-05-03 20:42 26.28510 -81.82775 20490 ft 406 kts 144°
2026-05-03 20:42 26.26412 -81.80672 20118 ft 404 kts 144°
2026-05-03 20:42 26.24370 -81.78513 19742 ft 407 kts 137°
2026-05-03 20:42 26.22779 -81.75869 19374 ft 413 kts 123°
2026-05-03 20:43 26.21489 -81.73010 19011 ft 413 kts 120°
2026-05-03 20:43 26.20256 -81.70125 18649 ft 412 kts 120°
2026-05-03 20:43 26.19027 -81.67249 18285 ft 409 kts 120°
2026-05-03 20:43 26.17802 -81.64401 17866 ft 407 kts 120°
2026-05-03 20:44 26.16578 -81.61567 17466 ft 404 kts 120°
2026-05-03 20:44 26.15361 -81.58762 17057 ft 400 kts 120°
2026-05-03 20:44 26.14151 -81.55978 16677 ft 397 kts 120°
2026-05-03 20:44 26.12955 -81.53231 16292 ft 394 kts 120°
2026-05-03 20:45 26.11762 -81.50495 15934 ft 392 kts 120°
2026-05-03 20:45 26.10571 -81.47768 15572 ft 389 kts 120°
2026-05-03 20:45 26.09407 -81.45103 15224 ft 387 kts 120°
2026-05-03 20:45 26.08233 -81.42419 14906 ft 385 kts 120°
2026-05-03 20:46 26.07067 -81.39751 14578 ft 383 kts 120°
2026-05-03 20:46 26.05908 -81.37090 14281 ft 380 kts 120°
2026-05-03 20:46 26.04760 -81.34453 13976 ft 378 kts 120°
2026-05-03 20:46 26.03615 -81.31827 13660 ft 376 kts 119°
2026-05-03 20:47 26.02476 -81.29214 13330 ft 375 kts 119°
2026-05-03 20:47 26.01342 -81.26617 12999 ft 373 kts 119°
2026-05-03 20:47 26.00214 -81.24033 12667 ft 370 kts 119°
2026-05-03 20:47 25.99091 -81.21460 12325 ft 367 kts 119°
2026-05-03 20:48 25.97996 -81.18951 12002 ft 356 kts 119°
2026-05-03 20:48 25.96932 -81.16514 11689 ft 345 kts 119°
2026-05-03 20:48 25.95898 -81.14147 11372 ft 336 kts 119°
2026-05-03 20:48 25.94888 -81.11838 11080 ft 328 kts 119°
2026-05-03 20:49 25.93904 -81.09592 10827 ft 321 kts 119°
2026-05-03 20:49 25.92928 -81.07370 10566 ft 318 kts 119°
2026-05-03 20:49 25.91961 -81.05166 10304 ft 317 kts 119°
2026-05-03 20:49 25.91033 -81.02943 10048 ft 317 kts 116°
2026-05-03 20:50 25.90160 -81.00698 9801 ft 315 kts 116°
2026-05-03 20:50 25.89303 -80.98459 9695 ft 314 kts 116°
2026-05-03 20:50 25.88451 -80.96231 9700 ft 314 kts 116°
2026-05-03 20:50 25.87609 -80.94033 9632 ft 314 kts 116°
2026-05-03 20:51 25.86752 -80.91801 9310 ft 313 kts 116°
2026-05-03 20:51 25.85902 -80.89584 8932 ft 309 kts 116°
2026-05-03 20:51 25.85067 -80.87408 8557 ft 304 kts 116°
2026-05-03 20:51 25.84522 -80.85988 8285 ft 301 kts 116°
2026-05-03 20:52 25.83494 -80.83315 7799 ft 295 kts 116°
2026-05-03 20:52 25.82686 -80.81215 7417 ft 291 kts 116°
2026-05-03 20:52 25.81893 -80.79156 7054 ft 287 kts 116°
2026-05-03 20:52 25.81112 -80.77129 6769 ft 285 kts 116°
2026-05-03 20:53 25.80334 -80.75112 6486 ft 284 kts 116°
2026-05-03 20:53 25.79565 -80.73116 6195 ft 278 kts 116°
2026-05-03 20:53 25.78821 -80.71187 5903 ft 272 kts 116°
2026-05-03 20:53 25.78081 -80.69269 5607 ft 268 kts 116°
2026-05-03 20:54 25.77393 -80.67353 5298 ft 267 kts 108°
2026-05-03 20:54 25.77199 -80.63243 4752 ft 267 kts 88°
2026-05-03 20:54 25.77305 -80.61188 4451 ft 265 kts 87°
2026-05-03 20:55 25.77414 -80.59169 4200 ft 260 kts 87°
2026-05-03 20:55 25.77513 -80.57174 3958 ft 259 kts 88°
2026-05-03 20:55 25.77603 -80.55203 3713 ft 259 kts 87°
2026-05-03 20:55 25.77692 -80.53210 3344 ft 258 kts 88°
2026-05-03 20:56 25.77783 -80.51257 2916 ft 250 kts 85°
2026-05-03 20:56 25.77898 -80.49375 2489 ft 238 kts 86°
2026-05-03 20:56 25.77984 -80.47564 2101 ft 234 kts 88°
2026-05-03 20:56 25.78052 -80.45765 1702 ft 231 kts 88°
2026-05-03 20:57 25.78098 -80.44023 1487 ft 219 kts 88°
2026-05-03 20:57 25.78147 -80.42397 1495 ft 203 kts 88°
2026-05-03 20:57 25.78206 -80.40908 1495 ft 185 kts 87°
2026-05-03 20:57 25.78264 -80.39571 1500 ft 165 kts 87°
2026-05-03 20:58 25.78322 -80.38321 1340 ft 158 kts 86°
2026-05-03 20:58 25.78373 -80.37147 1112 ft 148 kts 87°
2026-05-03 20:58 25.78420 -80.36016 917 ft 145 kts 87°
2026-05-03 20:58 25.78466 -80.34907 726 ft 143 kts 86°
2026-05-03 20:59 25.78512 -80.33803 538 ft 142 kts 85°
2026-05-03 20:59 25.78542 -80.33089 406 ft 139 kts 86°
2026-05-03 20:59 25.78586 -80.32021 230 ft 137 kts 85°
2026-05-03 20:59 25.78630 -80.30969 55 ft 136 kts 85°
2026-05-03 21:00 25.78673 -80.30050 22 ft 86 kts 88°
2026-05-03 21:00 25.78688 -80.29671 28 ft 74 kts 87°
2026-05-03 21:00 25.78773 -80.29188 26 ft 8 kts 45°
2026-05-03 21:00 25.78774 -80.29186 25 ft 0 kts 45°
2026-05-03 21:01 25.78814 -80.29125 22 ft 22 kts 69°
2026-05-03 21:01 25.78839 -80.28969 25 ft 23 kts 77°
2026-05-03 21:01 25.78866 -80.28803 21 ft 20 kts 87°
2026-05-03 21:02 25.78869 -80.28715 21 ft 10 kts 88°
2026-05-03 21:02 25.78872 -80.28653 22 ft 7 kts 88°
2026-05-03 21:02 25.78872 -80.28646 22 ft 0 kts 87°
2026-05-03 21:04 25.78873 -80.28615 23 ft 9 kts 88°
2026-05-03 21:05 25.78876 -80.28519 25 ft 14 kts 88°
2026-05-03 21:05 25.78880 -80.28412 26 ft 14 kts 86°
2026-05-03 21:05 25.78886 -80.28304 29 ft 14 kts 87°
2026-05-03 21:05 25.78892 -80.28196 26 ft 13 kts 83°
2026-05-03 21:06 25.78901 -80.28138 27 ft 6 kts 80°
2026-05-03 21:06 25.78904 -80.28073 28 ft 10 kts 86°
2026-05-03 21:06 25.78922 -80.28009 29 ft 7 kts 47°
2026-05-03 21:06 25.78955 -80.27999 29 ft 8 kts 355°
2026-05-03 21:07 25.78990 -80.28032 29 ft 6 kts 303°
2026-05-03 21:07 25.79015 -80.28077 29 ft 6 kts 307°
2026-05-03 21:07 25.79039 -80.28066 28 ft 10 kts 90°
2026-05-03 21:07 25.78995 -80.28017 29 ft 9 kts 141°
2026-05-03 21:08 25.78960 -80.27971 29 ft 7 kts 120°
2026-05-03 21:08 25.78939 -80.27921 29 ft 7 kts 102°
2026-05-03 21:08 25.78942 -80.27863 27 ft 8 kts 69°
2026-05-03 21:08 25.78976 -80.27832 27 ft 6 kts 25°
2026-05-03 21:09 25.79012 -80.27814 28 ft 6 kts 24°
2026-05-03 21:09 25.79018 -80.27799 28 ft 3 kts 95°
2026-05-03 21:09 25.79008 -80.27763 27 ft 6 kts 109°
2026-05-03 21:09 25.79003 -80.27746 27 ft 2 kts 108°
2026-05-03 21:10 25.79003 -80.27745 27 ft 0 kts 108°